Regional Weather Roundup
Issued by NWS Sioux Falls, SD

Home | Current Version | Previous Version | Text Only | Print | Product List | Glossary On
Versions: 1 2 3 4 5 6 7 8 9 10 11 12 13 14 15 16 17 18 19 20 21 22 23 24 25 26 27 28 29 30 31 32 33 34 35 36 37 38 39 40 41 42 43 44 45 46 47 48 49 50
000
ASUS43 KFSD 211002
RWRFSD

WEATHER ROUNDUP FOR SE SOUTH DAKOTA/SW MINNESOTA/NW IOWA
NATIONAL WEATHER SERVICE SIOUX FALLS SD
500 AM CDT THU AUG 21 2014

NOTE: "FAIR" INDICATES FEW OR NO CLOUDS BELOW 12,000 FEET WITH NO
SIGNIFICANT WEATHER AND OR OBSTRUCTIONS TO VISIBILITY.


SDZ038>040-050-052>070-211100-
SOUTHEAST SOUTH DAKOTA

CITY           SKY/WX    TMP DP  RH WIND       PRES   REMARKS
CHAMBERLAIN    CLOUDY    71  71 100 CALM      29.71R FOG
HURON          CLEAR     69  65  86 E6        29.65F
MADISON        CLOUDY    72  72 100 NE8       29.72F
MITCHELL       CLEAR     72  71  97 E3        29.67R FOG
SIOUX FALLS    PTCLDY    76  70  82 S10       29.66F
WINNER         FAIR      69  63  81 W13       29.75R
YANKTON        MOCLDY    77  72  83 SW12      29.69R
$$

MNZ071-072-080-081-089-090-097-098-211100-
SOUTHWEST MINNESOTA

CITY           SKY/WX    TMP DP  RH WIND       PRES   REMARKS
FAIRMONT       CLOUDY    72  66  83 MISG      29.80R THUNDER
JACKSON        CLOUDY    72  66  83 E5        29.77R
LUVERNE        PTCLDY    72  70  94 E5        29.70R
MARSHALL       MOCLDY    70  64  83 E12G29    29.72R
MONTEVIDEO     CLOUDY    70  70 100 SE17      29.75R
PIPESTONE      PTCLDY    73  72  94 S3        29.72R
REDWOOD FALLS  CLOUDY    70  66  87 SE7       29.71R
TRACY          MOCLDY    71  69  94 SE6       29.71S
WINDOM         TSTM      72  70  94 E5        29.75F
WORTHINGTON    CLOUDY    72  14  11 CALM      29.74F
$$

IAZ001>003-012>014-020>022-031-032-NEZ013-014-SDZ071-211100-
NORTHWEST IOWA

CITY           SKY/WX    TMP DP  RH WIND       PRES   REMARKS
CHEROKEE       LGT RAIN  75  72  89 S16       29.71S
DENISON        MOCLDY    75  70  83 S10G18    29.74F
ESTHERVILLE    TSTM      71  68  90 SE12G17   29.75R FOG
LE MARS        PTCLDY    75  72  88 S13       29.71R
ORANGE CITY    PTCLDY    75  70  83 S10       29.71R
SHELDON        MOCLDY    73  72  94 S10       29.70R
SIOUX CITY     PTCLDY    78  70  76 S9        29.71S
SPENCER        CLOUDY    75  71  87 S12       29.71S
STORM LAKE     MOCLDY    75  73  94 S17G23    29.74F
$$

ABBREVIATIONS USED IN REMARKS
   TC - TEMPERATURE IN CELSIUS
  WCI - WIND CHILL INDEX
   HX - HEAT INDEX
  VSB - VISIBILITY




USA.gov is the U.S. government's official web portal to all federal, state and local government web resources and services.